Hourly Data Report for October 01, 2015

All times are specified in Local Standard Time (LST). Add 1 hour to adjust for Daylight Saving Time where and when it is observed.

PANGNIRTUNG
NUNAVUT

66°08'36.300" N
65°42'40.500" W
22.60 m
2403049
71826
WXP

Download Data

Hourly Data (October 2015)
Hourly Data Report for October 1, 2015
Temp Definition
°C
Dew Point Temp Definition
°C
Rel Hum Definition
%
Wind Dir Definition
10's deg

Wind Spd Definition
km/h
Visibility Definition
km
Stn Press Definition
kPa
Hmdx Definition


Wind Chill Definition


Weather Definition


TIME
00:00 -2.6 -4.1 89 25 7   101.79   -5 LegendNANA
01:00 -2.0 -3.4 90 22 6   101.88   -4 LegendNANA
02:00 -2.3 -3.2 93 24 4   101.96   -4 LegendNANA
03:00 -2.9 -4.3 90 0 1   102.03   -3 LegendNANA
04:00 -1.9 -2.4 97 24 15   102.11   -7 LegendNANA
05:00 -1.8 -2.3 96 25 9   102.16   -5 LegendNANA
06:00 -1.6 -2.5 93 14 2   102.21   -2 LegendNANA
07:00 -0.7 -2.5 88 24 19   102.26   -6 LegendNANA
08:00 0.1 -3.1 79 22 16   102.30     LegendNANA
09:00 0.3 -3.1 78 24 11   102.31     LegendNANA
10:00 1.1 -4.0 69 27 12   102.30     LegendNANA
11:00 0.2 -2.4 83 25 13   102.33     LegendNANA
12:00 0.4 -2.6 81 26 17   102.37     LegendNANA
13:00 0.2 -2.6 81 25 17   102.37     LegendNANA
14:00 -0.6 -1.5 93 26 14   102.36   -5 LegendNANA
15:00 -0.8 -1.4 96 27 5   102.36   -2 LegendNANA
16:00 -0.6 -1.9 91 24 6   102.34   -3 LegendNANA
17:00 -0.9 -1.7 94 24 12   102.38   -5 LegendNANA
18:00 -0.8 -1.7 93 24 11   102.40   -5 LegendNANA
19:00 -1.1 -1.9 94 25 6   102.33   -3 LegendNANA
20:00 -1.3 -1.8 97 24 8   102.28   -4 LegendNANA
21:00 -1.5 -1.7 99 25 7   102.22   -4 LegendNANA
22:00 -1.3 -1.5 99 14 2   102.16   -2 LegendNANA
23:00 -1.1 -1.3 99   0   102.07     LegendNANA

Notes on Data Quality.

Legend

  • E = Estimated
  • M = Missing
  • NA = Not Available
  • ‡ = Partner data that is not subject to review by the National Climate Archives
Date modified: